| time (UTC) | temp C | wind direction | speed KPH | gust KPH | rain 1hr cm | rain 24hr cm | rain mn cm | humidity % | barometer mb |
| 20260504130215 | 21 | 34 | 9.7 | 0.0 | 0.00 | 0.00 | 0.00 | 38 | 1010.5 |
| 20260504120210 | 21 | 111 | 17.7 | 0.0 | 0.00 | 0.00 | 0.00 | 39 | 1010.9 |
| 20260504110210 | 20 | 26 | 11.3 | 0.0 | 0.00 | 0.00 | 0.00 | 31 | 1011.4 |
| 20260504100212 | 20 | 342 | 12.9 | 0.0 | 0.00 | 0.00 | 0.00 | 38 | 1011.9 |
| 20260504080210 | 17 | 22 | 8.0 | 0.0 | 0.00 | 0.00 | 0.00 | 47 | 1012.8 |
| 20260504070212 | 13 | 22 | 1.6 | 0.0 | 0.00 | 0.00 | 0.00 | 68 | 1013.1 |
| 20260504060212 | 10 | 114 | 0.0 | 0.0 | 0.00 | 0.00 | 0.00 | 79 | 1013.0 |
| 20260504050210 | 8 | 344 | 0.0 | 0.0 | 0.00 | 0.00 | 0.00 | 86 | 1012.9 |
| 20260504043211 | 8 | 319 | 3.2 | 0.0 | 0.00 | 0.00 | 0.00 | 86 | 1013.0 |
| 20260504040211 | 7 | 309 | 1.6 | 0.0 | 0.00 | 0.00 | 0.00 | 86 | 1013.1 |
| 20260504033211 | 8 | 131 | 1.6 | 0.0 | 0.00 | 0.00 | 0.00 | 85 | 1013.3 |
| 20260504030212 | 8 | 215 | 1.6 | 0.0 | 0.00 | 0.00 | 0.00 | 82 | 1013.4 |
| 20260504023211 | 10 | 343 | 1.6 | 0.0 | 0.00 | 0.00 | 0.00 | 80 | 1013.4 |
| 20260504020212 | 10 | 265 | 0.0 | 0.0 | 0.00 | 0.00 | 0.00 | 80 | 1013.3 |
| 20260504013211 | 10 | 265 | 0.0 | 0.0 | 0.00 | 0.00 | 0.00 | 79 | 1013.3 |
| 20260504010211 | 10 | 355 | 0.0 | 0.0 | 0.00 | 0.00 | 0.00 | 77 | 1013.1 |
| 20260504003210 | 11 | 310 | 1.6 | 0.0 | 0.00 | 0.00 | 0.00 | 74 | 1013.3 |
| 20260504000208 | 11 | 186 | 3.2 | 0.0 | 0.00 | 0.00 | 0.00 | 73 | 1013.5 |
| 20260503233209 | 11 | 144 | 3.2 | 0.0 | 0.00 | 0.00 | 0.00 | 71 | 1013.8 |
| 20260503230209 | 12 | 115 | 3.2 | 0.0 | 0.00 | 0.00 | 0.00 | 69 | 1014.0 |
| 20260503223210 | 12 | 140 | 4.8 | 0.0 | 0.00 | 0.00 | 0.00 | 66 | 1014.1 |
| 20260503213210 | 13 | 211 | 6.4 | 0.0 | 0.00 | 0.00 | 0.00 | 60 | 1013.9 |
| 20260503210211 | 13 | 206 | 4.8 | 0.0 | 0.00 | 0.00 | 0.00 | 58 | 1013.6 |
| 20260503203209 | 14 | 221 | 4.8 | 0.0 | 0.00 | 0.00 | 0.00 | 56 | 1013.3 |
| 20260503200211 | 15 | 252 | 6.4 | 0.0 | 0.00 | 0.00 | 0.00 | 54 | 1013.0 |
| 20260503193210 | 15 | 274 | 8.0 | 0.0 | 0.00 | 0.00 | 0.00 | 51 | 1012.8 |
| 20260503190210 | 16 | 277 | 12.9 | 0.0 | 0.00 | 0.00 | 0.00 | 47 | 1012.4 |
| 20260503183209 | 16 | 271 | 11.3 | 0.0 | 0.00 | 0.00 | 0.00 | 44 | 1012.2 |
| 20260503180210 | 18 | 262 | 16.1 | 0.0 | 0.00 | 0.00 | 0.00 | 39 | 1011.7 |
| 20260503173209 | 20 | 308 | 12.9 | 0.0 | 0.00 | 0.00 | 0.00 | 47 | 1011.2 |
| 20260503170211 | 20 | 294 | 16.1 | 0.0 | 0.00 | 0.00 | 0.00 | 46 | 1011.1 |
| 20260503160211 | 22 | 207 | 16.1 | 0.0 | 0.00 | 0.00 | 0.00 | 40 | 1010.8 |
| 20260503150209 | 22 | 207 | 17.7 | 0.0 | 0.00 | 0.00 | 0.00 | 37 | 1010.8 |
| 20260503140210 | 23 | 171 | 17.7 | 0.0 | 0.00 | 0.00 | 0.00 | 30 | 1011.2 |